ROMMA est une association bénévole à but non lucratif. Votre soutien est indispensable : ADHERER à ROMMA ou FAIRE un DON

Le Versoud - (38, Isère)

Vallée du Grésivaudan (220 m)   Longitude: 05° 51' 44" E   Latitude: 45° 13' 06" N Station partenaire n°6
 

Détail journalier du     <<     >>

Température Humidité Pression Vent Dir Rafale Dir. rafale Ensol.
Heure (°C) (%) (hPa) (km/h) (km/h) (min)
01:00 20.775101402NO0
02:00 20.378101400---0
03:00 19.281101300---0
04:00 18.584101300---0
05:00 18.283101400---0
06:00 17.784101400---0
07:00 17.386101500---0
08:00 19.976101500---35
09:00 22.765101500---60
10:00 24.361101502NO60
11:00 27.255101503N40
12:00 28.8451015011SSO60
13:00 30.83810151S10S60
14:00 30.83810153S15S50
15:00 30.344101408OSO0
16:00 31.839101405SO25
17:00 31.74310141SSO8SSO35
18:00 32.740101303OSO30
19:00 30.25010141---16OSO0
20:00 29.252101400---20
21:00 27.355101505SSO0
22:00 25.361101500---0
23:00 23.966101600---0
minuit 22.576101700---0

Graphique du 20-07-2019

 

Serveur OMMA